Hourly Data Report for October 05, 2017

All times are specified in Local Standard Time (LST). Add 1 hour to adjust for Daylight Saving Time where and when it is observed.

KENTVILLE CDA CS
NOVA SCOTIA

45°04'00.000" N
64°29'00.000" W
48.70 m
8202810
71671
XKT

Download Data

Hourly Data (October 2017)
Hourly Data Report for October 5, 2017
Temp Definition
°C
Dew Point Temp Definition
°C
Rel Hum Definition
%
Wind Dir Definition
10's deg

Wind Spd Definition
km/h
Visibility Definition
km
Stn Press Definition
kPa
Hmdx Definition


Wind Chill Definition


Weather Definition


TIME
00:00 13.9 10.9 82 22 15   100.75     LegendNANA
01:00 14.6 11.5 82 22 15   100.68     LegendNANA
02:00 15.6 11.8 78 22 20   100.59     LegendNANA
03:00 15.7 12.4 81 22 16   100.50     LegendNANA
04:00 16.3 12.7 80 23 13   100.54     LegendNANA
05:00 16.3 12.8 80 22 13   100.46     LegendNANA
06:00 16.3 13.1 81 23 17   100.50     LegendNANA
07:00 16.0 13.1 83 24 10   100.57     LegendNANA
08:00 17.1 13.3 78 25 15   100.62     LegendNANA
09:00 18.2 13.7 75 25 15   100.69     LegendNANA
10:00 19.7 13.3 67 27 12   100.70     LegendNANA
11:00 20.2 11.5 57 26 15   100.72     LegendNANA
12:00 20.0 11.0 56 29 14   100.69     LegendNANA
13:00 20.0 10.9 56 26 18   100.65     LegendNANA
14:00 20.4 11.1 55 25 16   100.61     LegendNANA
15:00 20.2 10.2 53 27 13   100.61     LegendNANA
16:00 19.6 10.3 55 24 13   100.62     LegendNANA
17:00 18.7 10.1 57 23 10   100.63     LegendNANA
18:00 16.4 10.5 68 21 7   100.65     LegendNANA
19:00 14.8 9.7 72 21 7   100.69     LegendNANA
20:00 14.6 8.5 67 21 10   100.73     LegendNANA
21:00 13.8 7.2 65 23 10   100.78     LegendNANA
22:00 10.9 7.6 80 17 1   100.86     LegendNANA
23:00 12.4 7.1 70 21 9   100.82     LegendNANA

Notes on Data Quality.

Legend

  • E = Estimated
  • M = Missing
  • NA = Not Available
  • ‡ = Partner data that is not subject to review by the National Climate Archives
Date modified: